Time,TemperatureF,DewpointF,PressureIn,WindDirection,WindDirectionDegrees,WindSpeedMPH,WindSpeedGustMPH,Humidity,HourlyPrecipIn,Conditions,Clouds,dailyrainin,SoftwareType,DateUTC
2013-01-29 00:00:00,70.7,67.9,29.88,ESE,118,1.0,2.0,91,0.00,,,0.00,Wunderground v.1.15,2013-01-29 06:00:00,
2013-01-29 00:10:00,70.6,67.8,29.87,SSW,193,1.0,1.0,91,0.00,,,0.00,Wunderground v.1.15,2013-01-29 06:10:00,
2013-01-29 00:15:00,70.6,67.8,29.87,South,169,1.0,2.0,91,0.00,,,0.00,Wunderground v.1.15,2013-01-29 06:15:00,
2013-01-29 00:25:00,70.6,67.8,29.88,SSW,195,1.0,1.0,91,0.00,,,0.00,Wunderground v.1.15,2013-01-29 06:25:00,
2013-01-29 00:35:00,70.6,67.8,29.87,NNE,13,1.0,1.0,91,0.00,,,0.00,Wunderground v.1.15,2013-01-29 06:35:00,
2013-01-29 00:45:00,70.6,67.8,29.87,SE,127,1.0,2.0,91,0.00,,,0.00,Wunderground v.1.15,2013-01-29 06:45:00,
2013-01-29 00:55:00,70.6,67.8,29.87,West,271,1.0,2.0,91,0.00,,,0.00,Wunderground v.1.15,2013-01-29 06:55:00,
2013-01-29 01:00:00,70.5,67.7,29.86,West,278,1.0,1.0,91,0.00,,,0.00,Wunderground v.1.15,2013-01-29 07:00:00,
2013-01-29 01:10:00,70.6,67.8,29.86,East,86,2.0,2.0,91,0.00,,,0.00,Wunderground v.1.15,2013-01-29 07:10:00,
2013-01-29 01:20:00,70.6,67.8,29.86,South,177,1.0,1.0,91,0.00,,,0.00,Wunderground v.1.15,2013-01-29 07:20:00,
2013-01-29 01:30:00,70.7,67.6,29.86,East,100,1.0,1.0,90,0.00,,,0.00,Wunderground v.1.15,2013-01-29 07:30:00,
2013-01-29 01:40:00,70.7,67.6,29.85,SSE,163,1.0,2.0,90,0.00,,,0.00,Wunderground v.1.15,2013-01-29 07:40:00,
2013-01-29 01:50:00,70.7,67.6,29.85,ESE,117,1.0,3.0,90,0.00,,,0.00,Wunderground v.1.15,2013-01-29 07:50:00,
2013-01-29 02:00:00,70.8,67.7,29.84,ESE,120,1.0,2.0,90,0.00,,,0.00,Wunderground v.1.15,2013-01-29 08:00:00,
2013-01-29 02:10:00,70.8,67.7,29.83,NNW,343,1.0,1.0,90,0.00,,,0.00,Wunderground v.1.15,2013-01-29 08:10:00,
2013-01-29 02:20:00,70.8,67.7,29.84,SE,125,1.0,1.0,90,0.00,,,0.00,Wunderground v.1.15,2013-01-29 08:20:00,
2013-01-29 02:30:00,70.8,67.7,29.84,ENE,75,1.0,1.0,90,0.00,,,0.00,Wunderground v.1.15,2013-01-29 08:30:00,
2013-01-29 02:40:00,70.8,67.7,29.84,SE,132,1.0,1.0,90,0.00,,,0.00,Wunderground v.1.15,2013-01-29 08:40:00,
2013-01-29 02:50:00,70.7,67.6,29.84,SSW,201,1.0,1.0,90,0.00,,,0.00,Wunderground v.1.15,2013-01-29 08:50:00,
2013-01-29 02:55:00,70.7,67.9,29.84,ESE,121,1.0,2.0,91,0.00,,,0.00,Wunderground v.1.15,2013-01-29 08:55:00,
2013-01-29 03:05:00,70.3,67.9,29.84,SE,127,1.0,1.0,92,0.00,,,0.00,Wunderground v.1.15,2013-01-29 09:05:00,
2013-01-29 03:14:00,69.9,67.8,29.83,SSE,150,1.0,1.0,93,0.00,,,0.00,Wunderground v.1.15,2013-01-29 09:14:00,
2013-01-29 03:20:00,69.8,67.7,29.83,ESE,110,1.0,2.0,93,0.00,,,0.00,Wunderground v.1.15,2013-01-29 09:20:00,
2013-01-29 03:30:00,69.5,67.7,29.83,SE,124,1.0,1.0,94,0.00,,,0.00,Wunderground v.1.15,2013-01-29 09:30:00,
2013-01-29 03:40:00,69.4,67.6,29.83,South,186,1.0,1.0,94,0.00,,,0.00,Wunderground v.1.15,2013-01-29 09:40:00,
2013-01-29 03:50:00,69.4,67.6,29.83,ESE,118,1.0,2.0,94,0.00,,,0.00,Wunderground v.1.15,2013-01-29 09:50:00,
2013-01-29 04:00:00,69.4,67.6,29.82,ESE,113,1.0,1.0,94,0.00,,,0.00,Wunderground v.1.15,2013-01-29 10:00:00,
2013-01-29 04:10:00,69.5,67.7,29.82,East,100,1.0,1.0,94,0.00,,,0.00,Wunderground v.1.15,2013-01-29 10:10:00,
2013-01-29 04:19:00,69.7,67.6,29.82,SE,145,1.0,1.0,93,0.00,,,0.00,Wunderground v.1.15,2013-01-29 10:19:00,
2013-01-29 04:25:00,69.7,67.6,29.82,East,87,1.0,2.0,93,0.00,,,0.00,Wunderground v.1.15,2013-01-29 10:25:00,
2013-01-29 04:35:00,69.8,67.7,29.81,ESE,102,1.0,2.0,93,0.00,,,0.00,Wunderground v.1.15,2013-01-29 10:35:00,
2013-01-29 04:45:00,70.0,67.6,29.81,ESE,111,2.0,2.0,92,0.00,,,0.00,Wunderground v.1.15,2013-01-29 10:45:00,
2013-01-29 04:55:00,70.1,67.7,29.81,East,89,1.0,1.0,92,0.00,,,0.00,Wunderground v.1.15,2013-01-29 10:55:00,
2013-01-29 05:04:00,70.1,67.7,29.80,SE,129,1.0,2.0,92,0.00,,,0.00,Wunderground v.1.15,2013-01-29 11:04:00,
2013-01-29 05:10:00,70.0,67.6,29.80,ESE,122,1.0,1.0,92,0.00,,,0.00,Wunderground v.1.15,2013-01-29 11:10:00,
2013-01-29 05:20:00,70.0,67.6,29.80,ESE,109,1.0,2.0,92,0.00,,,0.00,Wunderground v.1.15,2013-01-29 11:20:00,
2013-01-29 05:30:00,69.9,67.5,29.80,East,94,1.0,1.0,92,0.00,,,0.00,Wunderground v.1.15,2013-01-29 11:30:00,
2013-01-29 05:40:00,69.9,67.5,29.79,South,176,1.0,2.0,92,0.00,,,0.00,Wunderground v.1.15,2013-01-29 11:40:00,
2013-01-29 05:50:00,69.9,67.5,29.78,SE,139,1.0,1.0,92,0.00,,,0.00,Wunderground v.1.15,2013-01-29 11:50:00,
2013-01-29 05:59:00,69.9,67.5,29.78,East,98,1.0,1.0,92,0.00,,,0.00,Wunderground v.1.15,2013-01-29 11:59:00,
2013-01-29 06:05:00,69.9,67.5,29.78,ESE,122,1.0,1.0,92,0.00,,,0.00,Wunderground v.1.15,2013-01-29 12:05:00,
2013-01-29 06:15:00,69.9,67.5,29.78,ESE,120,1.0,2.0,92,0.00,,,0.00,Wunderground v.1.15,2013-01-29 12:15:00,
2013-01-29 06:25:00,69.9,67.8,29.78,South,181,1.0,2.0,93,0.00,,,0.00,Wunderground v.1.15,2013-01-29 12:25:00,
2013-01-29 06:30:00,69.9,67.8,29.76,ESE,108,1.0,1.0,93,0.00,,,0.00,Wunderground v.1.15,2013-01-29 12:30:00,
2013-01-29 06:40:00,69.8,67.7,29.77,South,184,1.0,1.0,93,0.00,,,0.00,Wunderground v.1.15,2013-01-29 12:40:00,
2013-01-29 06:49:00,69.8,67.7,29.77,ESE,105,0.0,0.0,93,0.00,,,0.00,Wunderground v.1.15,2013-01-29 12:49:00,
2013-01-29 06:55:00,69.8,67.7,29.77,ENE,77,1.0,2.0,93,0.00,,,0.00,Wunderground v.1.15,2013-01-29 12:55:00,
2013-01-29 07:05:00,69.9,67.8,29.77,ESE,120,2.0,2.0,93,0.00,,,0.00,Wunderground v.1.15,2013-01-29 13:05:00,
2013-01-29 07:14:00,69.9,67.8,29.77,SSE,152,1.0,2.0,93,0.00,,,0.00,Wunderground v.1.15,2013-01-29 13:14:00,
2013-01-29 07:20:00,70.0,67.6,29.76,SE,146,2.0,2.0,92,0.00,,,0.00,Wunderground v.1.15,2013-01-29 13:20:00,
2013-01-29 07:30:00,70.0,67.6,29.76,SE,127,1.0,1.0,92,0.00,,,0.00,Wunderground v.1.15,2013-01-29 13:30:00,
2013-01-29 07:35:00,70.0,67.6,29.76,East,86,1.0,2.0,92,0.00,,,0.00,Wunderground v.1.15,2013-01-29 13:35:00,
2013-01-29 07:45:00,70.0,67.6,29.76,East,100,1.0,2.0,92,0.00,,,0.00,Wunderground v.1.15,2013-01-29 13:45:00,
2013-01-29 07:55:00,69.9,67.8,29.75,ENE,77,1.0,1.0,93,0.00,,,0.00,Wunderground v.1.15,2013-01-29 13:55:00,
2013-01-29 08:05:00,69.9,67.8,29.75,WNW,287,1.0,1.0,93,0.00,,,0.00,Wunderground v.1.15,2013-01-29 14:05:00,
2013-01-29 08:14:00,70.0,67.6,29.75,SE,132,1.0,1.0,92,0.00,,,0.00,Wunderground v.1.15,2013-01-29 14:14:00,
2013-01-29 08:20:00,70.0,67.6,29.75,ESE,110,1.0,1.0,92,0.00,,,0.00,Wunderground v.1.15,2013-01-29 14:20:00,
2013-01-29 08:30:00,70.0,67.6,29.75,East,96,1.0,1.0,92,0.00,,,0.00,Wunderground v.1.15,2013-01-29 14:30:00,
2013-01-29 08:39:00,70.0,67.6,29.74,ESE,105,1.0,1.0,92,0.00,,,0.00,Wunderground v.1.15,2013-01-29 14:39:00,
2013-01-29 08:45:00,70.1,67.7,29.73,SE,134,1.0,1.0,92,0.00,,,0.00,Wunderground v.1.15,2013-01-29 14:45:00,
2013-01-29 08:54:00,70.2,67.8,29.73,East,101,2.0,5.0,92,0.00,,,0.00,Wunderground v.1.15,2013-01-29 14:54:00,
2013-01-29 09:00:00,70.3,67.5,29.73,ESE,102,2.0,2.0,91,0.00,,,0.00,Wunderground v.1.15,2013-01-29 15:00:00,
2013-01-29 09:10:00,70.5,67.7,29.73,SSE,158,1.0,1.0,91,0.00,,,0.00,Wunderground v.1.15,2013-01-29 15:10:00,
2013-01-29 09:19:00,70.6,67.8,29.74,ESE,104,1.0,1.0,91,0.00,,,0.00,Wunderground v.1.15,2013-01-29 15:19:00,
2013-01-29 09:25:00,70.6,67.8,29.74,SSE,162,1.0,1.0,91,0.00,,,0.00,Wunderground v.1.15,2013-01-29 15:25:00,
2013-01-29 09:30:00,70.7,67.6,29.74,ESE,115,2.0,2.0,90,0.00,,,0.00,Wunderground v.1.15,2013-01-29 15:30:00,
2013-01-29 09:40:00,70.8,67.7,29.73,NW,309,1.0,1.0,90,0.00,,,0.00,Wunderground v.1.15,2013-01-29 15:40:00,
2013-01-29 09:50:00,71.0,67.9,29.73,SW,228,1.0,1.0,90,0.00,,,0.00,Wunderground v.1.15,2013-01-29 15:50:00,
2013-01-29 10:00:00,71.1,68.0,29.73,SSW,204,1.0,2.0,90,0.00,,,0.00,Wunderground v.1.15,2013-01-29 16:00:00,
2013-01-29 10:05:00,71.2,67.8,29.73,SSE,166,1.0,3.0,89,0.00,,,0.00,Wunderground v.1.15,2013-01-29 16:05:00,
2013-01-29 10:15:00,71.2,67.8,29.74,WSW,255,1.0,2.0,89,0.00,,,0.00,Wunderground v.1.15,2013-01-29 16:15:00,
2013-01-29 10:25:00,71.4,68.0,29.73,SSW,193,1.0,2.0,89,0.00,,,0.00,Wunderground v.1.15,2013-01-29 16:25:00,
2013-01-29 10:35:00,71.7,68.3,29.73,SSE,155,1.0,1.0,89,0.00,,,0.00,Wunderground v.1.15,2013-01-29 16:35:00,
2013-01-29 10:45:00,72.1,68.3,29.72,SW,233,1.0,1.0,88,0.00,,,0.00,Wunderground v.1.15,2013-01-29 16:45:00,
2013-01-29 10:55:00,72.7,68.6,29.72,SSE,162,1.0,2.0,87,0.00,,,0.00,Wunderground v.1.15,2013-01-29 16:55:00,
2013-01-29 11:05:00,73.3,68.2,29.72,ESE,113,1.0,4.0,84,0.00,,,0.00,Wunderground v.1.15,2013-01-29 17:05:00,
2013-01-29 11:15:00,74.0,68.5,29.72,SSE,163,2.0,2.0,83,0.00,,,0.00,Wunderground v.1.15,2013-01-29 17:15:00,
2013-01-29 11:24:00,74.5,68.6,29.72,West,263,2.0,3.0,82,0.00,,,0.00,Wunderground v.1.15,2013-01-29 17:24:00,
2013-01-29 11:30:00,74.5,68.6,29.71,SSW,203,2.0,2.0,82,0.00,,,0.00,Wunderground v.1.15,2013-01-29 17:30:00,
2013-01-29 11:40:00,75.6,69.0,29.69,SE,134,1.0,1.0,80,0.00,,,0.00,Wunderground v.1.15,2013-01-29 17:40:00,
2013-01-29 11:49:00,76.4,69.4,29.69,SW,214,2.0,2.0,79,0.00,,,0.00,Wunderground v.1.15,2013-01-29 17:49:00,
2013-01-29 11:55:00,76.6,68.8,29.68,West,274,2.0,2.0,77,0.00,,,0.00,Wunderground v.1.15,2013-01-29 17:55:00,
2013-01-29 12:05:00,77.1,68.9,29.67,WNW,300,2.0,7.0,76,0.00,,,0.00,Wunderground v.1.15,2013-01-29 18:05:00,
2013-01-29 12:10:00,77.5,68.9,29.68,SE,128,2.0,4.0,75,0.00,,,0.00,Wunderground v.1.15,2013-01-29 18:10:00,
2013-01-29 12:20:00,78.1,68.7,29.66,West,270,2.0,3.0,73,0.00,,,0.00,Wunderground v.1.15,2013-01-29 18:20:00,
2013-01-29 12:30:00,78.4,68.6,29.66,NNW,338,2.0,2.0,72,0.00,,,0.00,Wunderground v.1.15,2013-01-29 18:30:00,
2013-01-29 12:40:00,78.6,68.0,29.64,WSW,245,3.0,6.0,70,0.00,,,0.00,Wunderground v.1.15,2013-01-29 18:40:00,
2013-01-29 12:49:00,79.2,68.1,29.64,SSW,201,3.0,3.0,69,0.00,,,0.00,Wunderground v.1.15,2013-01-29 18:49:00,
2013-01-29 12:55:00,79.1,68.1,29.63,SSE,155,3.0,4.0,69,0.00,,,0.00,Wunderground v.1.15,2013-01-29 18:55:00,
2013-01-29 13:05:00,78.9,67.4,29.62,West,271,3.0,3.0,68,0.00,,,0.00,Wunderground v.1.15,2013-01-29 19:05:00,
2013-01-29 13:14:00,79.7,67.3,29.62,West,277,3.0,7.0,66,0.00,,,0.00,Wunderground v.1.15,2013-01-29 19:14:00,
2013-01-29 13:20:00,80.1,67.3,29.61,ESE,110,3.0,3.0,65,0.00,,,0.00,Wunderground v.1.15,2013-01-29 19:20:00,
2013-01-29 13:30:00,80.2,66.9,29.60,South,186,3.0,3.0,64,0.00,,,0.00,Wunderground v.1.15,2013-01-29 19:30:00,
2013-01-29 13:39:00,80.9,67.1,29.60,WSW,252,3.0,8.0,63,0.00,,,0.00,Wunderground v.1.15,2013-01-29 19:39:00,
2013-01-29 13:45:00,81.2,66.9,29.60,NNW,337,3.0,8.0,62,0.00,,,0.00,Wunderground v.1.15,2013-01-29 19:45:00,
2013-01-29 13:55:00,80.7,65.5,29.59,NW,326,3.0,3.0,60,0.00,,,0.00,Wunderground v.1.15,2013-01-29 19:55:00,
2013-01-29 14:05:00,80.1,65.9,29.58,WNW,293,3.0,5.0,62,0.00,,,0.00,Wunderground v.1.15,2013-01-29 20:05:00,
2013-01-29 14:15:00,80.4,65.2,29.57,SSW,201,2.0,3.0,60,0.00,,,0.00,Wunderground v.1.15,2013-01-29 20:15:00,
2013-01-29 14:20:00,80.4,64.3,29.57,WSW,252,2.0,2.0,58,0.00,,,0.00,Wunderground v.1.15,2013-01-29 20:20:00,
2013-01-29 14:30:00,80.5,64.4,29.57,West,281,2.0,3.0,58,0.00,,,0.00,Wunderground v.1.15,2013-01-29 20:30:00,
2013-01-29 14:39:00,80.7,63.5,29.57,SW,217,2.0,2.0,56,0.00,,,0.00,Wunderground v.1.15,2013-01-29 20:39:00,
2013-01-29 14:45:00,80.6,63.5,29.56,SW,225,3.0,3.0,56,0.00,,,0.00,Wunderground v.1.15,2013-01-29 20:45:00,
2013-01-29 14:55:00,80.7,64.1,29.55,SSE,147,1.0,2.0,57,0.00,,,0.00,Wunderground v.1.15,2013-01-29 20:55:00,
2013-01-29 15:05:00,81.7,64.5,29.55,West,278,2.0,2.0,56,0.00,,,0.00,Wunderground v.1.15,2013-01-29 21:05:00,
2013-01-29 15:15:00,82.3,62.4,29.54,SW,218,2.0,3.0,51,0.00,,,0.00,Wunderground v.1.15,2013-01-29 21:15:00,
2013-01-29 15:25:00,82.5,61.4,29.54,ESE,115,2.0,3.0,49,0.00,,,0.00,Wunderground v.1.15,2013-01-29 21:25:00,
2013-01-29 15:34:00,83.4,60.4,29.53,SSE,163,3.0,3.0,46,0.00,,,0.00,Wunderground v.1.15,2013-01-29 21:34:00,
2013-01-29 15:40:00,84.3,61.3,29.53,SSW,194,2.0,2.0,46,0.00,,,0.00,Wunderground v.1.15,2013-01-29 21:40:00,
2013-01-29 15:50:00,84.8,61.1,29.53,SSW,194,2.0,2.0,45,0.00,,,0.00,Wunderground v.1.15,2013-01-29 21:50:00,
2013-01-29 15:59:00,85.6,57.8,29.52,SSW,212,2.0,2.0,39,0.00,,,0.00,Wunderground v.1.15,2013-01-29 21:59:00,
2013-01-29 16:10:00,85.1,56.6,29.52,SW,222,2.0,3.0,38,0.00,,,0.00,Wunderground v.1.15,2013-01-29 22:10:00,
2013-01-29 16:20:00,85.0,55.8,29.52,NW,304,3.0,3.0,37,0.00,,,0.00,Wunderground v.1.15,2013-01-29 22:20:00,
2013-01-29 16:30:00,85.0,55.1,29.51,SSW,208,2.0,2.0,36,0.00,,,0.00,Wunderground v.1.15,2013-01-29 22:30:00,
2013-01-29 16:40:00,85.2,55.2,29.51,SE,140,2.0,2.0,36,0.00,,,0.00,Wunderground v.1.15,2013-01-29 22:40:00,
2013-01-29 16:50:00,85.2,56.7,29.51,SW,225,2.0,2.0,38,0.00,,,0.00,Wunderground v.1.15,2013-01-29 22:50:00,
2013-01-29 17:00:00,84.9,57.2,29.51,NNE,27,2.0,2.0,39,0.00,,,0.00,Wunderground v.1.15,2013-01-29 23:00:00,
2013-01-29 17:09:00,83.8,56.9,29.51,ESE,107,1.0,1.0,40,0.00,,,0.00,Wunderground v.1.15,2013-01-29 23:09:00,
2013-01-29 17:15:00,83.3,56.5,29.51,SE,129,1.0,1.0,40,0.00,,,0.00,Wunderground v.1.15,2013-01-29 23:15:00,
2013-01-29 17:25:00,82.7,56.6,29.52,SSE,161,1.0,1.0,41,0.00,,,0.00,Wunderground v.1.15,2013-01-29 23:25:00,
2013-01-29 17:30:00,82.2,54.1,29.55,NNW,332,3.0,8.0,38,0.00,,,0.00,Wunderground v.1.15,2013-01-29 23:30:00,
2013-01-29 17:40:00,74.6,50.6,29.58,NW,321,8.0,8.0,43,0.00,,,0.00,Wunderground v.1.15,2013-01-29 23:40:00,
2013-01-29 17:45:00,72.5,49.9,29.59,NNW,344,7.0,12.0,45,0.00,,,0.00,Wunderground v.1.15,2013-01-29 23:45:00,
2013-01-29 17:55:00,69.6,47.9,29.60,ENE,76,8.0,10.0,46,0.00,,,0.00,Wunderground v.1.15,2013-01-29 23:55:00,
2013-01-29 18:04:00,68.2,46.0,29.60,North,7,7.0,9.0,45,0.00,,,0.00,Wunderground v.1.15,2013-01-30 00:04:00,
2013-01-29 18:10:00,67.8,45.7,29.61,NW,311,9.0,9.0,45,0.00,,,0.00,Wunderground v.1.15,2013-01-30 00:10:00,
2013-01-29 18:20:00,67.2,45.7,29.62,NNE,20,6.0,7.0,46,0.00,,,0.00,Wunderground v.1.15,2013-01-30 00:20:00,
2013-01-29 18:30:00,66.6,45.2,29.62,ENE,70,6.0,7.0,46,0.00,,,0.00,Wunderground v.1.15,2013-01-30 00:30:00,
2013-01-29 18:40:00,66.3,44.9,29.63,NW,319,5.0,11.0,46,0.00,,,0.00,Wunderground v.1.15,2013-01-30 00:40:00,
2013-01-29 18:50:00,66.2,43.0,29.64,NNW,347,5.0,6.0,43,0.00,,,0.00,Wunderground v.1.15,2013-01-30 00:50:00,
2013-01-29 18:59:00,66.0,42.9,29.65,NE,51,5.0,5.0,43,0.00,,,0.00,Wunderground v.1.15,2013-01-30 00:59:00,
2013-01-29 19:05:00,65.9,42.8,29.65,NW,304,4.0,5.0,43,0.00,,,0.00,Wunderground v.1.15,2013-01-30 01:05:00,
2013-01-29 19:14:00,65.6,41.9,29.66,NW,316,5.0,7.0,42,0.00,,,0.00,Wunderground v.1.15,2013-01-30 01:14:00,
2013-01-29 19:20:00,65.6,41.9,29.66,North,4,5.0,5.0,42,0.00,,,0.00,Wunderground v.1.15,2013-01-30 01:20:00,
2013-01-29 19:30:00,65.3,41.0,29.67,West,273,5.0,6.0,41,0.00,,,0.00,Wunderground v.1.15,2013-01-30 01:30:00,
2013-01-29 19:40:00,65.0,40.1,29.67,NNE,20,4.0,5.0,40,0.00,,,0.00,Wunderground v.1.15,2013-01-30 01:40:00,
2013-01-29 19:50:00,64.8,40.5,29.68,WNW,291,4.0,7.0,41,0.00,,,0.00,Wunderground v.1.15,2013-01-30 01:50:00,
2013-01-29 20:00:00,64.5,40.3,29.69,NNW,336,3.0,3.0,41,0.00,,,0.00,Wunderground v.1.15,2013-01-30 02:00:00,
2013-01-29 20:05:00,64.3,39.4,29.70,NW,312,3.0,7.0,40,0.00,,,0.00,Wunderground v.1.15,2013-01-30 02:05:00,
2013-01-29 20:15:00,64.1,39.9,29.70,East,86,3.0,4.0,41,0.00,,,0.00,Wunderground v.1.15,2013-01-30 02:15:00,
2013-01-29 20:25:00,63.8,39.0,29.71,NNW,328,2.0,3.0,40,0.00,,,0.00,Wunderground v.1.15,2013-01-30 02:25:00,
2013-01-29 20:34:00,63.7,38.9,29.71,NNW,328,3.0,3.0,40,0.00,,,0.00,Wunderground v.1.15,2013-01-30 02:34:00,
2013-01-29 20:40:00,63.5,38.7,29.72,NW,314,2.0,2.0,40,0.00,,,0.00,Wunderground v.1.15,2013-01-30 02:40:00,
2013-01-29 20:50:00,63.1,38.4,29.72,NE,47,2.0,3.0,40,0.00,,,0.00,Wunderground v.1.15,2013-01-30 02:50:00,
2013-01-29 21:00:00,63.0,38.3,29.73,NNE,33,2.0,2.0,40,0.00,,,0.00,Wunderground v.1.15,2013-01-30 03:00:00,
2013-01-29 21:10:00,62.6,37.9,29.73,NE,44,2.0,3.0,40,0.00,,,0.00,Wunderground v.1.15,2013-01-30 03:10:00,
2013-01-29 21:20:00,62.1,37.5,29.74,WNW,302,1.0,1.0,40,0.00,,,0.00,Wunderground v.1.15,2013-01-30 03:20:00,
2013-01-29 21:30:00,61.6,37.7,29.75,NW,326,0.0,0.0,41,0.00,,,0.00,Wunderground v.1.15,2013-01-30 03:30:00,
2013-01-29 21:40:00,60.8,37.5,29.75,NNE,27,0.0,1.0,42,0.00,,,0.00,Wunderground v.1.15,2013-01-30 03:40:00,
2013-01-29 21:50:00,60.8,36.3,29.75,NE,53,1.0,2.0,40,0.00,,,0.00,Wunderground v.1.15,2013-01-30 03:50:00,
2013-01-29 22:00:00,60.8,35.7,29.76,NE,56,2.0,2.0,39,0.00,,,0.00,Wunderground v.1.15,2013-01-30 04:00:00,
2013-01-29 22:10:00,60.6,34.8,29.77,NNW,328,2.0,2.0,38,0.00,,,0.00,Wunderground v.1.15,2013-01-30 04:10:00,
2013-01-29 22:20:00,60.7,33.6,29.79,NE,37,3.0,6.0,36,0.00,,,0.00,Wunderground v.1.15,2013-01-30 04:20:00,
2013-01-29 22:30:00,60.6,32.8,29.78,NE,36,3.0,5.0,35,0.00,,,0.00,Wunderground v.1.15,2013-01-30 04:30:00,
2013-01-29 22:40:00,60.1,32.3,29.79,West,280,2.0,2.0,35,0.00,,,0.00,Wunderground v.1.15,2013-01-30 04:40:00,
2013-01-29 22:50:00,59.8,32.1,29.79,NW,308,3.0,3.0,35,0.00,,,0.00,Wunderground v.1.15,2013-01-30 04:50:00,
2013-01-29 22:59:00,59.5,30.3,29.80,WNW,299,3.0,4.0,33,0.00,,,0.00,Wunderground v.1.15,2013-01-30 04:59:00,
2013-01-29 23:05:00,59.4,31.0,29.81,North,9,4.0,7.0,34,0.00,,,0.00,Wunderground v.1.15,2013-01-30 05:05:00,
2013-01-29 23:10:00,59.2,30.1,29.81,North,10,3.0,3.0,33,0.00,,,0.00,Wunderground v.1.15,2013-01-30 05:10:00,
2013-01-29 23:14:00,59.0,29.9,29.81,East,79,2.0,3.0,33,0.00,,,0.00,Wunderground v.1.15,2013-01-30 05:14:00,
2013-01-29 23:25:00,58.8,28.2,29.81,NW,316,4.0,5.0,31,0.00,,,0.00,Wunderground v.1.15,2013-01-30 05:25:00,
2013-01-29 23:35:00,58.7,28.1,29.82,West,269,3.0,4.0,31,0.00,,,0.00,Wunderground v.1.15,2013-01-30 05:35:00,
2013-01-29 23:39:00,58.4,28.6,29.82,NW,322,3.0,3.0,32,0.00,,,0.00,Wunderground v.1.15,2013-01-30 05:39:00,
2013-01-29 23:50:00,58.0,28.3,29.83,NW,323,2.0,2.0,32,0.00,,,0.00,Wunderground v.1.15,2013-01-30 05:50:00,